SCP
0 0 -0 -0 -0 -0 0 0 -0 -0 -0 -0 -0 -0 -0 -0 -0 -0 -0 -0 -0 -0 -0 -0 -0 -0 -0 -0 -0 -0 -0 -0 -0 -0 -0 -0 -0 -0 -0 -0 0 0 -0
0 0 -0 -0 -0 -0 -0 -0 0 -0 -0 -0 -0 -0 -0 -0 -0 -0 -0 -0 -0 -0 -0 -0 -0 -0 -0 -0 -0 -0 -0 -0 -0 -0 -0 -0 -0 -0 -0 -0 -0 0 0
0 0 0 -0 -0 -0 -0 -0 0 -0 -0 -0 -0 -0 -0 -0 -0 -0 -0 -0 -0 -0 -0 -0 -0 -0 -0 -0 -0 -0 -0 -0 -0 -0 -0 0 0 -0 -0 -0 -0 -0 0
0 0 0 -0 -0 -0 -0 -0 -0 0 -0 -0 -0 -0 -0 -0 -0 -0 -0 -0 -0 -0 -0 -0 -0 -0 -0 -0 -0 -0 -0 -0 -0 -0 0 0 0 -0 -0 -0 -0 0 0
0 0 0 -0 -0 -0 -0 -0 -0 0 0 -0 -0 -0 -0 -0 -0 -0 -0 -0 -0 -0 -0 -0 -0 -0 -0 -0 -0 -0 -0 -0 -0 0 0 0 0 0 -0 -0 0 0 0
0 0 0 -0 0 0 -0 -0 0 0 0 0 -0 -0 -0 -0 -0 -0 -0 -0 -0 -0 -0 -0 -0 -0 -0 -0 -0 -0 -0 -0 -0 0 0 0 0 -0 -0 -0 0 0 0
0 0 0 0 0 0 0 -0 0 0 0 0 0 -0 -0 -0 -0 -0 -0 -0 -0 -0 -0 -0 -0 -0 -0 -0 -0 -0 -0 -0 0 0 0 0 0 -0 -0 -0 0 0 0
0 0 0 0 0 0 0 0 0 0 0 0 0 0 -0 -0 -0 -0 0 0 -0 -0 -0 -0 -0 -0 -0 -0 -0 -0 0 0 0 0 0 0 0 -0 0 0 0 0 0
0 0 0 0 0 0 0 0 -0 -0 0 0 0 0 0 0 -0 -0 0 0 -0 -0 -0 -0 -0 -0 -0 -0 -0 0 0 0 0 0 0 0 0 0 0 0 0 0 0
0 0 0 0 0 0 0 -0 -0 -0 -0 0 0 0 0 0 0 -0 -0 -0 -0 -0 -0 -0 -0 -0 -0 0 0 0 0 0 0 0 0 0 0 0 0 0 0 0 0
0 0 -0 0 0 0 0 0 0 0 0 0 0 -0 0 0 0 -0 -0 -0 -0 -0 -0 -0 -0 0 0 0 0 0 0 0 0 0 0 0 0 0 0 0 0 0 0
0 0 0 -0 -0 0 0 0 -0 0 0 0 0 0 0 0 0 -0 -0 -0 -0 -0 0 0 0 0 0 0 0 0 0 0 0 0 0 0 0 0 0 0 0 0 0
0 0 0 0 -0 -0 -0 -0 -0 0 0 0 -0 -0 -0 -0 -0 -0 0 0 0 0 0 0 0 0 0 0 0 0 0 0 0 0 0 0 0 0 0 0 0 0 0
0 -0 -0 -0 -0 -0 0 0 0 0 0 0 0 -0 -0 -0 -0 0 0 0 0 0 0 0 0 0 0 0 0 0 0 0 0 0 0 0 0 0 0 0 0 0 0
0 0 -0 -0 -0 -0 -0 0 0 0 0 0 0 0 -0 -0 -0 0 0 0 0 0 0 0 0 0 0 0 0 0 0 0 0 0 0 0 0 0 0 0 0 0 0
0 0 0 -0 -0 -0 -0 -0 0 0 0 0 0 0 0 0 0 0 0 0 0 0 0 0 0 0 0 0 0 0 0 0 0 0 0 0 0 0 0 0 0 0 0
0 0 0 0 -0 -0 -0 -0 0 0 0 0 0 0 0 0 0 0 0 0 0 0 0 0 0 0 0 0 0 0 0 0 0 0 0 0 0 0 0 0 0 0 0
0 0 0 0 0 0 0 0 0 0 0 0 0 0 0 0 0 0 0 0 0 0 0 0 0 0 0 0 0 0 0 0 0 0 0 0 0 0 0 0 0 0 0
0 0 0 0 0 0 0 0 0 0 0 0 0 0 0 0 0 0 0 0 0 0 0 0 0 0 0 0 0 0 0 0 0 0 0 0 0 0 0 0 0 0 0
0 0 0 0 0 0 0 0 0 0 0 0 0 0 0 0 0 0 0 0 0 0 0 0 0 0 0 0 0 0 0 0 0 0 0 0 0 0 0 0 0 0 0
0 0 0 0 0 0 0 0 0 0 0 0 0 0 0 0 0 0 0 0 0 0 0 0 0 0 0 0 0 0 0 0 0 0 0 0 0 0 0 0 0 0 0
0 0 0 0 0 0 0 0 0 0 0 0 0 0 0 0 0 0 0 0 0 0 0 0 0 0 0 0 0 0 0 0 0 0 0 0 0 0 0 0 0 0 0
0 0 0 0 0 0 0 0 0 0 0 0 0 0 0 0 0 0 0 0 0 0 0 0 0 0 0 0 0 0 0 0 0 0 0 0 0 0 0 0 0 0 0
0 0 0 0 0 0 0 0 0 0 0 0 0 0 0 0 0 0 0 0 0 0 0 0 0 0 0 0 0 0 0 0 0 0 0 0 0 0 0 0 0 0 0
0 0 0 0 0 0 0 0 0 0 0 0 0 0 0 0 0 0 0 0 0 0 0 0 0 0 0 0 0 0 0 0 0 0 0 0 0 0 0 0 0 0 0
0 0 0 0 0 0 0 0 0 0 0 0 0 0 0 0 0 0 0 0 0 0 0 0 0 0 0 0 0 0 0 0 0 0 0 0 0 0 0 0 0 0 0
Wind_Speed_500mb
22 17 19 18 19 26 28 29 30 28 28 28 26 23 20 16 14 14 16 18 18 22 27 31 35 32 33 33 35 34 34 30 30 38 38 47 45 38 33 31 43 41 43
20 19 23 24 22 24 29 29 30 28 25 22 20 20 18 16 17 17 17 19 23 28 31 35 31 32 35 39 40 36 32 29 30 32 38 42 35 32 32 36 42 41 42
21 18 21 25 26 25 26 27 28 26 23 19 18 17 14 13 17 18 21 25 28 29 34 29 30 31 35 36 34 36 38 36 37 35 37 37 37 40 39 40 40 40 42
18 19 22 26 28 28 26 26 27 23 20 16 14 14 11 12 17 22 25 28 30 30 31 26 31 30 29 34 35 36 35 34 35 35 36 38 40 40 39 38 38 38 38
20 21 22 24 29 29 26 25 23 21 17 17 13 12 12 16 24 25 26 29 29 30 27 27 28 31 32 33 34 33 31 32 33 34 36 37 37 37 36 35 34 35 36
24 24 23 24 29 31 29 27 24 21 20 21 19 12 13 21 26 26 27 28 27 28 27 25 27 30 32 32 30 30 30 30 30 32 33 33 33 32 31 31 32 32 32
27 27 25 25 29 36 36 29 27 22 21 18 18 15 15 19 24 26 25 26 25 25 24 22 23 27 27 27 27 28 28 28 28 28 29 29 29 27 27 27 27 27 28
26 30 29 26 27 31 35 37 26 26 24 20 18 16 17 20 21 23 24 25 25 25 24 21 18 21 22 22 24 26 26 25 24 25 25 26 26 24 24 24 24 24 24
28 29 29 27 26 30 32 31 29 29 28 22 20 20 19 17 18 23 21 21 22 23 22 20 17 15 18 20 21 21 21 21 20 21 21 22 22 21 20 20 20 19 19
27 28 28 26 26 25 24 25 25 27 26 23 20 19 20 16 13 19 18 18 19 19 18 17 15 11 12 16 17 16 17 17 15 16 16 16 16 16 15 15 17 16 17
35 31 31 29 28 24 23 23 23 22 22 20 19 18 15 13 11 14 17 15 15 15 15 14 13 10 6 9 10 11 12 11 10 10 10 11 12 13 14 15 12 16 16
41 40 34 32 31 31 29 26 26 26 25 23 21 19 17 14 14 16 17 16 15 14 13 12 11 9 5 3 5 6 6 5 5 4 5 7 10 12 13 12 9 10 11
39 39 37 32 29 26 24 26 25 24 22 21 20 19 19 17 16 18 18 16 15 13 12 12 10 9 8 7 5 4 4 3 3 3 4 7 10 14 15 14 13 11 13
47 42 40 37 32 31 30 27 25 25 24 23 22 21 19 18 18 19 20 19 16 14 13 12 11 11 11 11 11 11 9 7 7 8 9 11 13 16 16 15 15 12 8
49 46 46 43 40 36 35 32 29 26 24 23 21 21 20 19 18 19 20 19 19 17 15 14 12 11 11 11 12 13 13 12 12 13 13 13 13 14 13 13 7 7 11
49 48 48 47 43 40 38 37 33 30 26 25 24 22 22 21 21 19 20 19 20 17 16 16 16 15 15 15 16 16 16 16 16 16 15 17 18 16 13 8 11 9 10
55 49 50 49 47 45 41 39 37 33 32 29 26 26 24 23 21 20 19 19 18 19 19 20 20 20 20 20 19 19 17 17 18 18 19 20 20 17 13 13 12 7 12
59 58 54 52 51 47 46 44 40 38 38 35 32 30 28 26 24 23 23 22 22 23 23 25 24 25 25 24 22 20 21 19 20 22 22 21 20 20 18 18 17 15 16
64 63 59 58 56 53 49 48 44 42 43 41 39 37 34 31 31 31 28 26 27 27 28 28 30 29 26 26 23 23 23 24 26 27 24 23 24 24 24 24 21 18 19
70 68 65 63 61 57 55 53 52 51 51 47 48 45 41 39 38 37 36 33 33 34 33 33 33 31 28 24 26 28 32 33 29 30 29 29 29 30 30 28 26 23 22
73 74 72 71 70 66 68 65 64 64 60 57 55 53 50 47 44 44 43 41 40 42 39 35 32 31 34 30 33 38 33 32 33 35 36 35 33 34 35 34 33 29 26
73 76 76 76 76 73 73 71 71 67 68 63 58 58 57 55 52 50 49 49 49 49 47 45 42 39 42 36 34 35 34 30 31 36 39 34 37 38 38 38 39 36 27
77 77 77 78 79 78 73 71 70 71 72 70 72 68 64 60 57 57 55 56 55 56 55 51 49 47 50 41 34 31 17 27 29 31 39 41 43 47 47 47 43 42 33
73 71 73 75 79 77 73 75 74 73 76 70 71 69 67 64 62 61 61 59 60 61 61 56 52 53 54 49 42 43 47 50 41 28 35 51 50 57 60 56 53 46 40
68 77 72 72 73 75 72 74 73 74 72 68 69 68 68 66 67 67 65 64 64 63 64 60 57 60 59 61 54 50 52 54 57 58 48 43 49 57 69 62 56 49 45
65 73 78 76 70 73 72 73 74 72 71 69 68 66 66 65 66 68 69 69 67 67 67 64 61 63 64 64 64 64 67 66 60 60 66 67 64 59 62 67 65 57 48
Wind_Direction_500mb
181 172 156 153 133 132 132 130 126 125 125 126 128 125 119 109 106 99 94 88 87 86 90 90 87 85 86 81 80 81 80 84 82 88 84 87 84 87 81 77 69 67 63
180 169 159 163 150 140 136 134 134 132 130 125 126 126 116 97 98 100 97 94 91 93 93 93 85 80 80 86 77 76 81 82 83 81 83 87 87 93 82 77 79 72 65
178 172 162 162 159 150 141 139 136 133 127 124 124 121 109 95 99 102 102 101 98 98 98 98 87 79 78 83 81 78 74 79 82 81 87 88 82 79 76 72 71 69 70
189 181 163 162 162 155 149 146 142 136 131 132 131 120 113 108 108 109 107 103 102 101 99 94 84 75 81 84 79 78 79 79 82 84 84 82 81 76 74 74 72 69 68
188 181 170 164 165 160 154 151 146 140 133 139 145 130 118 107 107 109 103 99 100 103 103 92 84 86 95 83 81 82 82 84 87 88 87 82 80 78 76 74 71 68 65
189 180 174 165 169 163 149 147 151 145 143 135 140 135 115 111 110 104 99 101 102 103 105 101 100 93 89 85 87 89 89 90 89 87 86 84 81 79 76 73 69 66 62
182 176 165 162 172 173 165 157 158 163 154 135 144 140 117 111 120 109 107 105 106 109 112 108 96 90 89 93 94 94 91 89 86 87 85 85 80 78 75 71 67 64 62
182 170 162 159 166 178 183 183 177 163 164 155 153 151 126 123 129 126 121 118 119 119 117 114 102 96 94 96 94 95 93 88 86 83 81 78 77 71 68 67 64 62 58
177 169 165 160 164 170 181 194 172 163 171 172 168 160 144 146 140 138 128 125 119 116 120 123 118 113 109 100 93 95 95 91 85 80 77 74 72 65 57 55 49 45 40
179 174 172 170 169 171 171 168 166 167 171 175 179 177 170 157 144 142 138 129 122 121 125 131 135 130 112 101 103 101 101 96 90 84 75 70 65 54 43 40 37 29 23
183 184 180 177 174 176 174 168 165 166 171 178 180 180 179 183 178 161 153 142 135 138 143 148 152 148 126 109 104 103 106 108 99 86 76 62 47 36 22 23 30 15 23
190 188 191 186 183 180 176 176 173 173 174 179 181 183 186 191 191 179 171 164 159 160 162 164 168 161 163 162 146 134 136 140 114 89 55 44 32 17 5 3 10 352 345
191 194 195 197 196 188 186 183 184 182 184 186 185 188 188 192 192 189 186 183 180 179 178 185 195 201 201 223 231 211 210 230 246 302 336 355 359 352 346 343 350 1 9
200 198 199 198 200 197 196 198 195 195 191 189 187 189 191 194 194 192 194 196 197 199 201 207 212 218 222 225 237 241 246 251 268 287 310 328 343 345 344 349 360 33 29
206 202 205 204 203 204 204 205 207 206 202 196 197 195 198 200 202 204 204 208 212 214 218 224 231 235 240 247 251 254 263 267 270 276 292 306 320 330 329 348 25 334 318
212 211 210 209 210 211 214 214 215 215 213 213 208 207 205 206 207 210 217 220 224 228 232 236 238 242 245 249 252 252 254 262 268 275 283 297 308 315 311 318 320 335 337
217 215 217 216 215 216 216 218 219 223 224 227 224 218 217 219 218 220 226 233 235 238 244 246 249 250 249 249 251 254 252 252 260 269 279 288 293 294 287 294 300 317 310
224 221 220 222 221 222 220 221 224 225 230 234 231 231 230 229 232 234 236 238 242 247 251 253 254 256 260 258 254 257 257 255 260 270 276 277 281 283 272 274 285 292 304
228 227 227 227 227 228 227 225 228 231 235 236 236 235 235 236 237 240 244 244 248 253 258 259 260 260 261 265 266 269 263 265 264 267 269 269 272 276 268 268 283 286 301
228 231 231 233 233 234 235 235 234 235 237 239 239 240 240 240 240 245 247 247 250 255 259 263 265 261 267 270 271 269 267 270 259 263 265 265 270 274 269 268 278 279 288
232 230 230 231 234 235 236 234 236 237 238 240 242 241 242 244 245 248 252 253 255 258 264 268 269 268 270 264 269 275 274 263 262 264 266 264 270 276 270 268 271 275 283
231 232 231 231 233 234 237 237 240 243 243 243 248 249 247 246 246 248 253 255 257 259 259 258 260 269 264 267 271 267 277 277 276 269 261 260 262 265 267 273 267 273 280
232 231 233 232 233 232 236 238 241 246 248 246 245 245 246 247 249 251 254 255 257 258 260 260 260 260 261 267 259 254 269 273 280 272 258 252 253 257 260 263 266 263 268
234 235 235 236 234 234 234 238 240 243 247 250 251 252 252 251 251 251 254 256 257 257 259 261 260 259 257 256 252 249 255 263 270 275 270 254 251 257 254 259 262 265 264
237 238 237 236 237 238 236 240 244 247 252 257 257 255 254 254 254 256 256 257 257 258 259 259 259 255 254 252 250 255 259 257 260 264 270 261 257 269 247 255 245 257 255
239 240 237 238 239 240 241 241 246 250 251 255 255 255 256 256 255 255 257 259 261 261 260 261 262 259 257 255 253 256 257 259 264 266 267 267 274 268 257 252 249 248 251
Wind_Speed_850mb
22 17 19 18 19 26 28 29 30 28 28 28 26 23 20 16 14 14 16 18 18 22 27 31 35 32 33 33 35 34 34 30 30 38 38 47 45 38 33 31 43 41 43
20 19 23 24 22 24 29 29 30 28 25 22 20 20 18 16 17 17 17 19 23 28 31 35 31 32 35 39 40 36 32 29 30 32 38 42 35 32 32 36 42 41 42
21 18 21 25 26 25 26 27 28 26 23 19 18 17 14 13 17 18 21 25 28 29 34 29 30 31 35 36 34 36 38 36 37 35 37 37 37 40 39 40 40 40 42
18 19 22 26 28 28 26 26 27 23 20 16 14 14 11 12 17 22 25 28 30 30 31 26 31 30 29 34 35 36 35 34 35 35 36 38 40 40 39 38 38 38 38
20 21 22 24 29 29 26 25 23 21 17 17 13 12 12 16 24 25 26 29 29 30 27 27 28 31 32 33 34 33 31 32 33 34 36 37 37 37 36 35 34 35 36
24 24 23 24 29 31 29 27 24 21 20 21 19 12 13 21 26 26 27 28 27 28 27 25 27 30 32 32 30 30 30 30 30 32 33 33 33 32 31 31 32 32 32
27 27 25 25 29 36 36 29 27 22 21 18 18 15 15 19 24 26 25 26 25 25 24 22 23 27 27 27 27 28 28 28 28 28 29 29 29 27 27 27 27 27 28
26 30 29 26 27 31 35 37 26 26 24 20 18 16 17 20 21 23 24 25 25 25 24 21 18 21 22 22 24 26 26 25 24 25 25 26 26 24 24 24 24 24 24
28 29 29 27 26 30 32 31 29 29 28 22 20 20 19 17 18 23 21 21 22 23 22 20 17 15 18 20 21 21 21 21 20 21 21 22 22 21 20 20 20 19 19
27 28 28 26 26 25 24 25 25 27 26 23 20 19 20 16 13 19 18 18 19 19 18 17 15 11 12 16 17 16 17 17 15 16 16 16 16 16 15 15 17 16 17
35 31 31 29 28 24 23 23 23 22 22 20 19 18 15 13 11 14 17 15 15 15 15 14 13 10 6 9 10 11 12 11 10 10 10 11 12 13 14 15 12 16 16
41 40 34 32 31 31 29 26 26 26 25 23 21 19 17 14 14 16 17 16 15 14 13 12 11 9 5 3 5 6 6 5 5 4 5 7 10 12 13 12 9 10 11
39 39 37 32 29 26 24 26 25 24 22 21 20 19 19 17 16 18 18 16 15 13 12 12 10 9 8 7 5 4 4 3 3 3 4 7 10 14 15 14 13 11 13
47 42 40 37 32 31 30 27 25 25 24 23 22 21 19 18 18 19 20 19 16 14 13 12 11 11 11 11 11 11 9 7 7 8 9 11 13 16 16 15 15 12 8
49 46 46 43 40 36 35 32 29 26 24 23 21 21 20 19 18 19 20 19 19 17 15 14 12 11 11 11 12 13 13 12 12 13 13 13 13 14 13 13 7 7 11
49 48 48 47 43 40 38 37 33 30 26 25 24 22 22 21 21 19 20 19 20 17 16 16 16 15 15 15 16 16 16 16 16 16 15 17 18 16 13 8 11 9 10
55 49 50 49 47 45 41 39 37 33 32 29 26 26 24 23 21 20 19 19 18 19 19 20 20 20 20 20 19 19 17 17 18 18 19 20 20 17 13 13 12 7 12
59 58 54 52 51 47 46 44 40 38 38 35 32 30 28 26 24 23 23 22 22 23 23 25 24 25 25 24 22 20 21 19 20 22 22 21 20 20 18 18 17 15 16
64 63 59 58 56 53 49 48 44 42 43 41 39 37 34 31 31 31 28 26 27 27 28 28 30 29 26 26 23 23 23 24 26 27 24 23 24 24 24 24 21 18 19
70 68 65 63 61 57 55 53 52 51 51 47 48 45 41 39 38 37 36 33 33 34 33 33 33 31 28 24 26 28 32 33 29 30 29 29 29 30 30 28 26 23 22
73 74 72 71 70 66 68 65 64 64 60 57 55 53 50 47 44 44 43 41 40 42 39 35 32 31 34 30 33 38 33 32 33 35 36 35 33 34 35 34 33 29 26
73 76 76 76 76 73 73 71 71 67 68 63 58 58 57 55 52 50 49 49 49 49 47 45 42 39 42 36 34 35 34 30 31 36 39 34 37 38 38 38 39 36 27
77 77 77 78 79 78 73 71 70 71 72 70 72 68 64 60 57 57 55 56 55 56 55 51 49 47 50 41 34 31 17 27 29 31 39 41 43 47 47 47 43 42 33
73 71 73 75 79 77 73 75 74 73 76 70 71 69 67 64 62 61 61 59 60 61 61 56 52 53 54 49 42 43 47 50 41 28 35 51 50 57 60 56 53 46 40
68 77 72 72 73 75 72 74 73 74 72 68 69 68 68 66 67 67 65 64 64 63 64 60 57 60 59 61 54 50 52 54 57 58 48 43 49 57 69 62 56 49 45
65 73 78 76 70 73 72 73 74 72 71 69 68 66 66 65 66 68 69 69 67 67 67 64 61 63 64 64 64 64 67 66 60 60 66 67 64 59 62 67 65 57 48
Wind_Direction_850mb
181 172 156 153 133 132 132 130 126 125 125 126 128 125 119 109 106 99 94 88 87 86 90 90 87 85 86 81 80 81 80 84 82 88 84 87 84 87 81 77 69 67 63
180 169 159 163 150 140 136 134 134 132 130 125 126 126 116 97 98 100 97 94 91 93 93 93 85 80 80 86 77 76 81 82 83 81 83 87 87 93 82 77 79 72 65
178 172 162 162 159 150 141 139 136 133 127 124 124 121 109 95 99 102 102 101 98 98 98 98 87 79 78 83 81 78 74 79 82 81 87 88 82 79 76 72 71 69 70
189 181 163 162 162 155 149 146 142 136 131 132 131 120 113 108 108 109 107 103 102 101 99 94 84 75 81 84 79 78 79 79 82 84 84 82 81 76 74 74 72 69 68
188 181 170 164 165 160 154 151 146 140 133 139 145 130 118 107 107 109 103 99 100 103 103 92 84 86 95 83 81 82 82 84 87 88 87 82 80 78 76 74 71 68 65
189 180 174 165 169 163 149 147 151 145 143 135 140 135 115 111 110 104 99 101 102 103 105 101 100 93 89 85 87 89 89 90 89 87 86 84 81 79 76 73 69 66 62
182 176 165 162 172 173 165 157 158 163 154 135 144 140 117 111 120 109 107 105 106 109 112 108 96 90 89 93 94 94 91 89 86 87 85 85 80 78 75 71 67 64 62
182 170 162 159 166 178 183 183 177 163 164 155 153 151 126 123 129 126 121 118 119 119 117 114 102 96 94 96 94 95 93 88 86 83 81 78 77 71 68 67 64 62 58
177 169 165 160 164 170 181 194 172 163 171 172 168 160 144 146 140 138 128 125 119 116 120 123 118 113 109 100 93 95 95 91 85 80 77 74 72 65 57 55 49 45 40
179 174 172 170 169 171 171 168 166 167 171 175 179 177 170 157 144 142 138 129 122 121 125 131 135 130 112 101 103 101 101 96 90 84 75 70 65 54 43 40 37 29 23
183 184 180 177 174 176 174 168 165 166 171 178 180 180 179 183 178 161 153 142 135 138 143 148 152 148 126 109 104 103 106 108 99 86 76 62 47 36 22 23 30 15 23
190 188 191 186 183 180 176 176 173 173 174 179 181 183 186 191 191 179 171 164 159 160 162 164 168 161 163 162 146 134 136 140 114 89 55 44 32 17 5 3 10 352 345
191 194 195 197 196 188 186 183 184 182 184 186 185 188 188 192 192 189 186 183 180 179 178 185 195 201 201 223 231 211 210 230 246 302 336 355 359 352 346 343 350 1 9
200 198 199 198 200 197 196 198 195 195 191 189 187 189 191 194 194 192 194 196 197 199 201 207 212 218 222 225 237 241 246 251 268 287 310 328 343 345 344 349 360 33 29
206 202 205 204 203 204 204 205 207 206 202 196 197 195 198 200 202 204 204 208 212 214 218 224 231 235 240 247 251 254 263 267 270 276 292 306 320 330 329 348 25 334 318
212 211 210 209 210 211 214 214 215 215 213 213 208 207 205 206 207 210 217 220 224 228 232 236 238 242 245 249 252 252 254 262 268 275 283 297 308 315 311 318 320 335 337
217 215 217 216 215 216 216 218 219 223 224 227 224 218 217 219 218 220 226 233 235 238 244 246 249 250 249 249 251 254 252 252 260 269 279 288 293 294 287 294 300 317 310
224 221 220 222 221 222 220 221 224 225 230 234 231 231 230 229 232 234 236 238 242 247 251 253 254 256 260 258 254 257 257 255 260 270 276 277 281 283 272 274 285 292 304
228 227 227 227 227 228 227 225 228 231 235 236 236 235 235 236 237 240 244 244 248 253 258 259 260 260 261 265 266 269 263 265 264 267 269 269 272 276 268 268 283 286 301
228 231 231 233 233 234 235 235 234 235 237 239 239 240 240 240 240 245 247 247 250 255 259 263 265 261 267 270 271 269 267 270 259 263 265 265 270 274 269 268 278 279 288
232 230 230 231 234 235 236 234 236 237 238 240 242 241 242 244 245 248 252 253 255 258 264 268 269 268 270 264 269 275 274 263 262 264 266 264 270 276 270 268 271 275 283
231 232 231 231 233 234 237 237 240 243 243 243 248 249 247 246 246 248 253 255 257 259 259 258 260 269 264 267 271 267 277 277 276 269 261 260 262 265 267 273 267 273 280
232 231 233 232 233 232 236 238 241 246 248 246 245 245 246 247 249 251 254 255 257 258 260 260 260 260 261 267 259 254 269 273 280 272 258 252 253 257 260 263 266 263 268
234 235 235 236 234 234 234 238 240 243 247 250 251 252 252 251 251 251 254 256 257 257 259 261 260 259 257 256 252 249 255 263 270 275 270 254 251 257 254 259 262 265 264
237 238 237 236 237 238 236 240 244 247 252 257 257 255 254 254 254 256 256 257 257 258 259 259 259 255 254 252 250 255 259 257 260 264 270 261 257 269 247 255 245 257 255
239 240 237 238 239 240 241 241 246 250 251 255 255 255 256 256 255 255 257 259 261 261 260 261 262 259 257 255 253 256 257 259 264 266 267 267 274 268 257 252 249 248 251